Regional Weather Roundup
Issued by NWS

Home | Current Version | Previous Version | Graphics & Text | Print | Product List | Glossary On
Versions: 1 2 3 4 5 6 7 8 9 10 11 12 13 14 15 16 17 18 19 20 21 22 23 24 25 26 27 28 29 30 31 32 33 34 35 36 37 38 39 40 41 42 43 44 45 46 47 48 49 50
000
ASUS43 KFSD 221110
RWRSD

WEATHER ROUNDUP FOR SOUTH DAKOTA
NATIONAL WEATHER SERVICE SIOUX FALLS SD
600 AM CDT FRI AUG 22 2014

NOTE: "FAIR" INDICATES FEW OR NO CLOUDS BELOW 12,000 FEET WITH NO
SIGNIFICANT WEATHER AND/OR OBSTRUCTIONS TO VISIBILITY.


SDZ001>005-009-010-012>017-221200-
NORTHWEST AND NORTH CENTRAL SOUTH DAKOTA

CITY           SKY/WX    TMP DP  RH WIND       PRES   REMARKS
BUFFALO          N/A     58  57  97 NW7       30.00S
FAITH            N/A     62  61  96 N12       30.02F
MOBRIDGE       CLOUDY    64  63  96 W3        29.98S
$$

SDZ012>016-024>037-041>051-057-063-072>074-221200-
SOUTHWEST AND SOUTH CENTRAL SOUTH DAKOTA

CITY           SKY/WX    TMP DP  RH WIND       PRES   REMARKS
RAPID CTY ARPT CLOUDY    61  60  97 N16       30.04R FOG
PIERRE         MOCLDY    66  64  93 N10       29.97R
CUSTER         PTCLDY    49  47  93 N3        30.12S
ELLSWORTH AFB  CLOUDY    62  61  99 N13       30.04R
PHILIP         MOCLDY    66  62  87 NE14      29.95F
PINE RIDGE     MOCLDY    58  57  97 CALM      30.02S
WINNER         FAIR      67  63  87 S3        29.96R
$$

SDZ004>011-016>023-039-040-221200-
NORTHEAST SOUTH DAKOTA

CITY           SKY/WX    TMP DP  RH WIND       PRES   REMARKS
ABERDEEN       MOCLDY    64  64 100 N10       29.96R
WATERTOWN      FOG       61  61 100 CALM      29.95R VSB 1/4
SISSETON         N/A     63  63 100 N5        29.92R
$$

SDZ017-020-022-023-036>040-048>070-221200-
SOUTHEAST SOUTH DAKOTA

CITY           SKY/WX    TMP DP  RH WIND       PRES   REMARKS
SIOUX FALLS    PTCLDY    65  64  97 N3        29.93S
HURON          FOG       57  57 100 NW6       29.94R VSB 1/2
CHAMBERLAIN    CLEAR     64  64  97 CALM      29.95R
MITCHELL       PTCLDY    64  63  96 CALM      29.94R FOG
YANKTON        CLEAR     64  64 100 N3        29.92S
$$

ABBREVIATIONS USED IN REMARKS
   TC - TEMPERATURE IN CELSIUS
  WCI - WIND CHILL INDEX
   HX - HEAT INDEX
  VSB - VISIBILITY



USA.gov is the U.S. government's official web portal to all federal, state and local government web resources and services.